User: anonymous   Login
Location: Unspecified
(0.0000°N, 0.0000°E)
Time: 19:57:16
(UTC+00:00)
Language:

SRMSAT - Orbit

View from above orbital plane
View from above orbital plane
View from above satellite
View from above satellite

Ground track
Ground track

The orbit data is extracted from the following two-line orbital elements,

1 37841U 11058D   17269.23736247  .00000323  00000-0  32452-4 0  9995
2 37841  19.9712 241.5267 0012079 111.0102  23.4304 14.10584599307569
Epoch (UTC): 26 September 2017 05:41:48
Eccentricity: 0.0012079
inclination: 19.9712°
perigee height: 848 km
apogee height: 866 km
right ascension of ascending node: 241.5267°
argument of perigee: 111.0102°
revolutions per day: 14.10584599
mean anomaly at epoch: 23.4304°
orbit number at epoch: 30756

The dashed part of the orbit path shows where the satellite is in the earth's shadow,  

DLR